Wind_Speed
27 28 27 27 27 29 29 29 29 28 29 29 28 28 28 29 30 30 30 31 33 34 36 38 40 41 43 44 45 46 46 46 47 48 49 50 50 51 52 53 53 53 54 55 56 57 58 59 60 62 64 66 66 67 69 68 67 65 62 58 53 52 54 56 60 62 63 63 63 66 66 64 63 65 66 70 75 75 72 69 66 63 61 58 58 59 57 52
29 28 28 27 28 29 30 29 29 29 30 30 29 28 29 30 30 31 32 33 35 36 38 40 42 43 44 45 46 47 48 48 49 51 51 51 52 52 52 53 54 55 55 55 57 58 59 60 61 61 62 64 66 67 70 69 68 67 63 59 54 53 56 60 63 63 65 67 68 69 70 67 66 68 70 71 73 73 72 71 68 65 62 60 58 58 59 53
29 28 27 28 29 29 30 29 29 29 30 29 29 29 29 30 32 33 34 35 37 39 40 42 43 44 45 46 48 48 49 48 50 51 51 51 52 53 53 54 55 55 56 56 58 59 60 61 61 62 62 63 64 67 69 70 70 68 65 60 55 57 60 63 64 64 66 69 72 73 72 70 70 72 74 73 72 71 71 70 69 66 62 62 60 58 60 58
28 28 28 29 29 29 29 29 29 30 29 29 29 30 31 33 34 35 37 38 39 41 42 43 44 46 47 48 48 49 48 48 49 49 49 50 50 51 52 53 54 55 56 57 58 60 61 61 62 62 63 64 65 66 68 70 71 69 66 60 58 63 66 64 65 66 69 71 74 76 75 73 73 75 76 74 71 70 70 69 68 66 64 63 62 58 59 61
28 28 28 29 29 29 28 29 29 29 29 30 31 32 34 35 36 37 39 40 41 43 44 45 46 47 48 48 48 48 48 47 48 48 47 48 48 49 50 51 53 54 55 57 58 60 61 62 62 62 63 65 66 66 67 69 71 71 67 63 64 69 68 67 67 68 71 73 74 76 77 76 76 79 78 76 72 70 69 69 67 65 66 66 65 61 59 58
28 28 29 29 28 28 29 29 29 29 30 32 33 35 36 37 38 39 40 42 43 44 45 46 47 48 48 49 49 49 49 49 49 47 47 47 46 46 47 49 50 52 54 56 57 59 61 62 62 62 63 65 66 67 68 69 70 69 68 66 69 71 69 69 70 70 71 73 74 75 77 79 80 80 79 76 72 70 69 70 69 65 64 68 68 63 62 59
28 28 28 28 28 29 29 29 30 30 31 33 34 36 37 38 39 41 42 43 44 45 46 47 48 48 49 50 51 51 51 51 50 47 46 46 45 45 46 47 49 51 53 55 57 58 60 61 62 62 63 65 66 68 69 69 69 67 68 70 73 73 71 71 73 72 72 73 73 75 77 79 81 81 79 76 71 70 70 70 71 65 61 65 68 65 66 66
28 28 27 27 28 29 30 30 31 31 33 34 35 37 38 39 41 42 43 44 45 46 46 47 48 49 50 51 52 53 53 52 50 47 44 45 45 45 45 46 48 50 52 54 56 58 59 61 62 63 64 66 67 68 69 69 69 67 68 73 76 74 72 72 72 72 73 72 72 73 75 76 79 81 80 76 71 71 71 71 73 69 62 61 66 67 67 68
27 26 27 28 29 30 30 31 32 33 34 35 37 38 40 41 42 43 44 45 46 46 46 47 49 50 51 52 53 54 53 52 49 46 43 43 44 45 46 46 47 49 51 53 55 57 59 60 62 63 64 66 67 68 68 68 69 68 69 73 75 74 73 74 74 74 75 74 73 72 73 75 76 78 78 76 74 75 75 74 75 73 67 64 64 66 68 69
26 26 27 29 30 31 31 32 33 34 35 37 38 40 41 42 43 44 45 45 45 45 46 47 49 51 51 52 53 52 52 50 48 47 44 44 44 44 45 46 47 48 49 51 53 55 58 59 61 62 63 65 67 68 68 68 69 69 70 72 74 75 75 76 76 76 77 77 78 76 75 75 75 76 76 78 78 79 79 77 77 75 71 69 66 65 66 68
26 27 28 30 31 31 32 34 35 36 37 39 40 41 43 43 44 44 45 45 44 44 45 47 49 50 51 51 51 50 49 48 46 45 45 45 44 43 44 44 45 46 47 49 51 53 56 57 59 61 63 65 66 67 68 68 70 71 72 73 74 75 76 77 77 77 79 79 81 81 78 76 76 75 74 79 83 82 81 80 80 77 73 72 68 64 66 68
27 28 30 31 32 33 34 35 36 37 39 40 41 42 43 44 44 44 43 43 42 43 45 47 49 51 50 51 50 49 48 46 44 44 45 46 45 43 43 43 44 45 46 47 49 51 54 56 58 60 62 64 65 66 67 68 70 72 72 73 75 75 75 77 79 79 80 81 82 84 81 77 76 75 73 79 84 84 83 82 81 78 76 75 69 64 67 70
28 30 31 33 33 34 35 36 37 38 40 41 42 42 43 43 42 42 41 41 41 43 46 48 50 51 50 50 50 49 47 45 45 46 45 45 46 43 42 43 43 43 43 45 47 49 51 54 56 59 61 63 64 66 67 68 70 72 73 74 75 76 75 77 80 81 82 82 83 85 82 78 77 75 74 78 83 86 86 85 84 81 79 77 74 70 69 69
29 31 33 34 35 36 36 37 38 39 40 41 41 42 41 41 40 40 40 40 42 44 47 49 51 53 52 51 50 49 47 45 45 47 46 45 46 44 41 41 41 40 41 42 43 46 48 51 54 57 60 63 65 66 67 68 70 71 73 74 75 76 76 78 80 82 83 83 85 87 82 78 78 77 76 79 82 86 88 88 87 86 83 81 80 77 73 69
31 32 34 35 36 36 37 37 38 39 40 40 40 39 39 39 40 40 41 42 43 45 47 49 52 55 55 53 52 50 47 46 47 48 46 45 45 43 40 38 38 37 37 38 39 42 44 47 51 54 58 61 64 66 68 69 70 72 73 74 75 76 77 78 81 82 83 84 86 88 83 78 81 80 80 82 84 87 89 89 90 90 88 85 84 82 78 72
32 33 35 36 37 36 36 36 37 38 39 39 39 38 38 39 41 43 44 44 44 46 48 50 53 55 57 57 56 52 48 47 49 49 48 46 44 42 39 36 35 34 34 34 36 38 40 43 46 51 55 59 62 65 67 69 70 72 73 75 75 76 78 80 82 82 83 85 87 88 83 80 84 85 86 87 87 89 89 90 91 93 92 89 88 86 80 74
33 34 35 36 36 35 35 36 37 37 38 37 37 38 40 42 45 46 46 45 46 47 49 52 54 56 58 60 60 57 51 49 51 50 49 47 43 40 37 35 33 32 32 32 33 35 37 39 43 47 50 55 59 62 66 69 71 72 73 75 76 77 79 81 83 84 85 86 88 89 84 82 86 88 90 91 91 91 90 90 91 93 94 91 90 86 80 76
33 34 35 36 35 34 33 34 35 36 36 37 39 41 44 46 48 49 48 48 48 50 53 55 56 57 60 62 64 61 55 52 53 52 50 46 42 38 35 34 33 32 32 32 32 34 36 38 40 43 45 49 54 58 63 67 70 71 72 75 77 78 79 81 84 85 86 87 88 89 84 82 85 88 90 92 92 92 90 90 91 92 92 90 88 86 84 81
33 34 36 36 34 32 32 33 34 35 36 38 41 44 47 48 49 50 50 51 52 53 56 58 59 59 60 62 64 63 59 54 54 53 50 46 41 37 35 33 32 31 31 32 31 33 36 37 38 39 42 45 49 53 58 62 66 68 71 74 77 78 79 81 84 86 87 87 87 89 86 84 86 89 91 93 93 92 90 89 90 91 91 89 86 84 86 85
32 34 36 34 32 31 31 32 33 34 36 39 42 44 47 49 51 52 54 55 57 58 59 60 62 61 61 64 66 66 62 56 55 55 51 46 41 37 35 34 32 31 31 31 31 33 35 35 35 36 39 42 46 49 53 57 60 63 67 72 75 77 79 80 83 86 87 87 86 88 86 85 87 91 93 95 96 95 92 91 91 91 91 89 86 83 84 86
32 34 34 33 31 29 30 32 33 34 37 40 43 46 49 52 54 56 58 60 61 62 62 63 65 65 65 68 70 69 65 58 54 56 53 47 41 37 35 34 32 30 30 29 30 31 33 31 31 32 35 39 42 45 49 52 55 58 62 67 71 74 77 79 82 85 87 86 85 86 86 85 87 91 93 95 97 96 94 93 93 92 91 89 86 83 82 84
33 34 33 31 29 28 29 31 33 35 37 40 43 47 51 55 57 59 62 64 64 65 66 66 67 68 67 68 69 69 66 60 55 56 55 49 43 39 36 33 30 29 28 28 27 28 30 29 27 29 32 35 38 41 45 48 51 54 57 61 66 69 72 76 80 83 85 85 84 86 86 86 89 90 92 95 97 97 96 95 95 94 93 90 86 84 81 82
33 33 31 30 28 27 29 31 32 35 38 41 45 49 54 56 58 61 64 66 67 67 68 68 67 67 66 65 67 68 67 63 59 57 56 51 46 42 37 34 30 28 26 25 25 25 27 27 26 27 29 31 34 37 40 44 47 50 53 56 60 64 67 71 77 81 84 84 84 86 86 86 89 91 93 96 98 99 98 98 98 97 95 92 88 85 83 82
31 31 31 30 27 27 30 32 34 37 40 44 48 52 55 57 60 62 66 68 68 68 69 70 68 67 67 67 67 68 68 64 61 59 57 52 48 44 39 34 30 27 25 24 23 23 24 24 24 25 27 29 31 33 35 38 42 44 47 52 55 59 62 67 72 76 80 83 84 86 86 85 89 93 95 99 100 99 100 99 98 98 96 94 91 88 86 84
30 31 31 30 29 29 31 33 36 39 43 47 51 53 56 59 61 64 68 69 69 70 70 70 69 68 67 69 69 69 69 67 64 61 58 53 48 46 41 36 31 27 23 21 21 21 21 22 22 22 24 27 28 29 31 34 37 39 42 46 50 54 58 62 67 70 74 79 82 85 85 84 89 94 97 99 100 98 99 99 98 99 98 97 97 93 89 86
29 31 31 32 32 31 33 35 37 41 45 49 52 55 57 60 63 67 70 70 71 72 71 71 70 69 68 69 70 71 70 69 66 63 60 55 49 47 43 37 32 28 22 19 19 18 18 19 19 20 21 23 25 26 28 30 33 35 37 41 45 49 53 57 61 65 68 73 78 82 82 83 89 94 97 99 99 98 99 100 99 100 99 99 100 96 92 88
30 32 33 35 35 35 35 37 39 43 47 50 53 57 59 61 65 69 71 72 73 73 73 72 71 70 70 70 71 72 71 70 67 65 63 58 52 48 44 39 34 29 24 19 17 16 15 15 16 17 17 18 20 22 25 27 28 30 33 36 39 44 49 53 57 60 63 67 72 76 77 81 88 93 96 99 101 101 101 101 101 102 101 101 102 98 94 90
31 33 35 37 39 39 38 40 41 44 47 51 55 58 60 63 67 70 72 73 74 74 75 74 72 71 71 71 72 72 72 71 69 67 65 62 56 51 48 43 38 34 29 23 19 15 13 12 12 13 14 14 16 18 20 22 25 27 29 31 35 40 44 49 52 56 59 61 66 73 75 79 87 93 97 100 102 103 103 103 103 103 103 102 103 101 96 92
32 34 36 38 41 42 42 42 43 44 47 51 55 58 61 64 67 70 73 75 75 75 75 75 73 73 72 72 72 72 73 72 71 68 67 64 59 54 51 47 42 36 31 26 22 18 14 12 11 10 11 12 12 14 16 18 20 23 26 28 32 35 40 44 48 52 55 57 63 72 74 74 81 90 96 99 101 103 104 105 104 104 104 103 103 103 99 95
33 34 37 39 41 43 44 44 44 45 48 51 54 58 62 64 67 70 73 75 76 75 75 75 74 74 74 73 72 73 73 73 71 69 67 66 61 56 52 48 42 36 30 26 22 19 16 13 11 10 10 10 10 11 13 15 16 19 22 25 28 32 36 40 44 49 53 56 62 68 68 64 69 80 91 95 98 101 104 106 105 104 104 104 104 104 101 97
34 35 37 39 41 43 45 44 44 46 49 50 53 59 63 63 66 71 73 75 76 76 76 76 75 75 74 73 72 73 73 73 72 69 68 66 63 57 53 49 44 39 34 29 25 23 20 18 17 15 14 14 13 12 12 13 13 15 17 20 24 27 31 36 40 45 50 54 57 59 60 56 58 69 83 91 94 98 103 105 106 105 105 105 104 104 102 99
34 35 37 38 41 43 44 44 45 47 49 49 53 60 63 61 64 70 72 74 75 75 75 74 73 74 74 73 72 72 72 72 71 69 68 66 63 58 53 50 46 43 39 36 33 30 27 25 24 22 20 19 19 18 17 15 12 12 14 16 19 22 26 31 35 39 43 48 52 53 54 51 52 62 76 86 91 96 101 105 106 105 104 104 105 105 103 100
35 36 37 38 40 43 44 45 46 47 49 50 54 61 62 60 64 68 71 73 74 74 74 73 72 73 74 73 72 71 71 71 71 69 67 66 63 58 53 49 46 42 39 38 36 34 32 29 28 27 25 23 21 21 21 20 18 15 14 14 17 20 24 28 31 33 36 41 46 49 48 46 48 58 70 80 87 93 99 104 106 105 103 103 105 105 104 102
35 36 37 38 39 42 44 44 45 47 49 50 55 62 62 60 64 67 70 73 73 73 74 73 72 72 73 72 71 70 70 70 70 69 67 65 64 59 54 49 46 43 39 36 34 33 32 31 30 29 28 27 24 22 22 21 19 17 17 17 19 21 23 24 26 28 31 35 40 42 42 43 47 54 63 73 82 89 95 100 103 104 103 104 105 106 105 103
35 36 37 38 38 41 43 44 46 48 50 50 55 62 62 61 64 66 69 72 72 73 73 72 72 73 73 72 70 68 68 68 68 68 66 65 64 61 56 51 47 45 42 39 36 32 30 30 31 29 28 27 24 22 21 19 17 17 18 18 21 23 22 22 22 23 27 29 32 35 38 42 46 51 57 67 77 85 91 96 100 103 105 107 107 106 105 105
35 35 38 39 40 42 44 46 48 50 51 51 56 61 61 61 64 65 67 70 71 72 72 71 72 73 73 72 69 67 66 66 67 67 66 65 64 62 57 51 47 44 42 40 38 36 34 34 35 34 31 28 24 21 20 19 18 18 18 17 19 20 20 20 20 20 22 24 27 31 36 40 44 48 53 61 70 78 85 92 99 104 108 110 108 106 107 108
35 35 38 40 43 45 46 48 49 49 51 52 57 60 59 62 65 65 67 68 69 70 71 70 70 72 72 71 69 67 65 65 66 66 65 64 63 61 57 52 47 44 41 38 37 37 38 38 38 38 35 30 25 21 19 18 18 16 15 15 17 17 17 17 17 17 18 20 23 27 31 36 40 43 47 54 63 71 79 88 97 104 109 110 108 107 108 109
35 35 36 39 44 46 47 49 48 49 52 54 57 58 58 62 65 65 67 68 68 69 70 69 70 71 71 70 68 66 65 65 65 65 64 64 63 61 58 53 47 43 41 38 36 34 35 37 38 37 33 28 24 21 19 16 14 14 14 14 15 17 18 18 17 15 14 16 18 22 25 31 36 38 42 49 58 67 75 84 93 102 106 107 107 108 109 109
37 36 37 40 44 46 47 49 48 49 53 55 57 58 59 62 64 65 66 67 68 69 68 68 69 70 71 70 67 64 63 63 63 64 64 63 63 62 60 55 48 44 41 38 35 33 32 34 36 35 30 24 23 23 23 20 17 17 18 18 18 18 19 19 17 14 12 12 13 17 21 25 31 35 40 46 53 62 71 79 86 94 100 102 105 108 109 109
38 38 40 44 46 46 47 50 51 52 53 55 58 59 60 62 63 64 64 64 66 68 67 66 67 69 70 70 67 62 61 61 61 62 63 63 63 63 61 58 51 45 42 38 35 32 32 33 34 34 29 21 20 21 22 23 23 23 23 22 21 19 19 18 16 15 12 10 9 12 16 19 24 30 36 42 47 55 64 71 77 84 90 96 102 106 107 107
38 39 42 46 47 47 48 52 54 55 55 56 57 58 60 62 64 64 63 62 64 65 64 64 65 67 69 70 67 63 60 60 60 60 62 62 62 62 62 60 55 48 43 39 36 32 31 31 32 33 29 21 19 20 22 23 24 24 24 24 22 21 20 18 16 15 13 10 7 8 11 15 20 26 32 38 44 49 56 63 69 75 82 92 99 104 106 106
37 38 42 45 47 48 50 53 55 56 57 57 57 58 59 61 64 64 62 61 62 63 62 62 63 65 67 69 68 64 61 60 60 60 60 61 61 61 61 60 57 51 46 41 37 33 31 31 33 33 29 22 20 21 23 24 24 24 25 24 22 21 19 17 15 14 13 11 8 5 6 11 16 21 27 34 40 45 49 54 61 68 77 88 96 102 104 106
35 37 40 44 47 49 52 54 55 56 57 57 58 58 59 60 62 62 60 60 61 63 63 62 63 64 66 68 68 65 62 60 60 60 59 59 60 60 60 60 58 54 48 43 40 35 31 29 31 34 32 26 23 23 22 22 22 22 23 23 21 19 17 15 15 14 13 12 9 6 3 5 11 16 22 28 34 40 44 48 54 63 72 82 91 98 102 105
35 35 38 43 47 50 52 54 55 56 57 58 59 58 58 60 61 60 59 60 61 62 63 62 63 63 65 67 67 65 62 60 59 59 59 60 59 58 59 59 59 56 51 45 42 38 33 28 25 28 29 23 19 19 19 18 19 19 20 20 20 19 16 14 14 15 14 13 11 8 5 1 5 11 18 24 29 35 40 45 51 58 66 74 84 93 99 103
36 38 40 44 48 50 52 54 55 56 57 58 59 59 59 60 60 59 57 58 59 60 61 62 62 63 64 65 66 66 63 60 59 58 59 59 59 58 58 58 58 57 53 48 43 39 36 31 24 22 21 18 13 12 14 16 17 17 17 18 19 19 17 16 15 14 14 14 13 11 8 4 1 6 12 19 24 30 37 42 48 54 61 67 76 86 95 101
39 43 45 47 48 50 52 53 55 56 57 57 58 59 60 60 60 58 55 55 57 57 58 60 62 62 63 64 66 67 64 61 59 58 57 58 59 59 57 57 57 57 55 50 45 41 38 34 29 23 21 21 18 15 15 17 17 17 18 18 18 19 19 18 15 13 14 14 14 12 11 8 4 2 7 13 19 25 32 38 44 50 57 63 70 79 89 98
41 45 47 48 50 51 52 53 54 55 56 56 58 59 60 60 60 58 54 54 56 56 57 58 60 61 62 64 66 67 65 62 59 57 56 57 58 59 57 56 56 56 56 52 48 43 39 36 32 27 23 23 21 18 16 16 16 17 17 18 19 21 21 19 17 14 13 14 14 13 12 10 7 4 3 7 13 20 27 34 39 45 52 59 66 74 83 93
43 45 46 48 50 52 53 54 55 55 55 56 58 59 60 59 59 57 55 53 54 55 56 57 59 60 61 62 64 65 66 64 61 58 57 56 56 57 57 55 55 55 56 54 50 44 40 37 35 30 26 24 22 18 15 14 15 15 16 18 19 20 21 21 20 17 15 13 14 14 13 11 9 7 4 4 8 15 21 28 35 41 47 54 62 68 76 86
45 45 46 48 50 51 53 54 54 55 56 57 58 59 59 58 58 56 54 53 53 53 55 56 57 59 60 60 62 64 65 65 63 60 58 56 56 57 56 55 54 54 55 55 52 47 42 39 37 33 28 25 23 20 16 14 13 13 13 15 15 16 18 19 19 19 17 14 13 13 13 13 11 9 7 5 5 11 17 23 30 36 42 49 56 62 69 77
47 47 48 49 50 51 52 52 53 55 57 58 59 59 58 58 57 55 53 52 53 53 54 56 56 57 58 59 61 62 64 65 64 61 59 57 56 57 57 56 54 53 54 54 53 50 44 40 37 35 31 26 24 21 17 14 14 12 11 13 15 16 17 18 18 18 18 17 13 13 15 14 12 11 9 7 5 7 13 19 24 31 37 43 49 56 62 68
48 49 50 50 51 52 51 50 52 55 58 59 58 58 57 56 56 55 52 51 52 53 53 55 56 57 58 58 59 61 62 64 64 63 60 58 56 56 56 56 54 53 53 53 53 51 46 41 37 35 33 29 24 22 19 15 14 14 14 16 18 17 17 17 15 14 16 17 15 13 14 14 12 11 9 7 7 6 9 14 20 25 31 37 44 49 55 61
50 51 51 51 52 53 52 52 53 56 58 58 57 57 56 54 55 56 54 51 51 51 52 53 55 56 57 57 58 60 61 63 63 63 61 58 56 55 56 56 54 53 52 52 52 51 48 43 38 35 34 31 26 22 19 16 13 13 13 13 15 17 16 15 13 11 13 15 13 10 10 11 12 11 9 8 7 6 8 11 15 20 26 31 37 43 48 53
Wind_Direction
333 332 331 329 327 327 328 329 328 328 328 328 328 326 323 321 319 316 312 309 307 305 303 303 302 301 299 298 296 294 293 291 290 287 285 282 280 277 275 273 270 267 265 264 262 260 258 256 253 252 251 251 251 250 250 249 248 247 245 243 240 237 235 234 233 231 228 225 226 230 232 230 230 232 230 230 233 234 233 233 233 229 228 229 230 227 223 224
330 330 329 327 326 326 328 328 328 327 328 328 327 325 322 320 319 316 313 310 308 307 305 305 303 302 300 298 296 294 293 292 290 288 285 283 280 277 274 272 270 267 265 263 261 260 258 256 254 253 251 250 249 249 249 249 248 247 245 242 239 236 234 232 231 230 228 226 225 227 229 229 229 231 231 230 231 234 233 231 232 230 227 227 228 228 225 223
328 328 326 326 326 327 328 328 328 328 327 327 326 324 323 321 320 318 315 313 312 310 309 307 305 303 301 299 297 296 294 293 291 288 286 284 281 278 275 272 269 267 265 263 261 259 257 255 254 253 251 250 248 247 247 247 247 246 245 242 238 236 234 232 230 229 228 227 225 226 227 227 228 230 232 231 230 233 234 232 230 229 227 227 226 226 225 223
326 326 326 326 327 328 328 328 328 328 328 326 326 325 324 323 321 320 318 316 314 312 310 308 306 304 303 301 299 298 297 296 293 290 288 285 281 279 276 273 270 268 265 263 260 259 258 256 254 252 251 250 248 246 245 245 246 245 243 241 238 237 234 232 230 228 228 227 225 225 225 226 226 228 231 232 230 231 234 234 230 228 227 225 223 221 223 225
325 326 326 327 327 328 329 329 329 328 327 326 326 326 325 324 322 321 319 317 316 314 312 311 309 307 306 305 304 303 302 300 298 294 291 287 283 280 277 274 272 269 266 263 261 259 258 256 254 252 250 249 249 247 245 244 243 243 242 239 237 236 235 232 231 229 228 227 226 226 225 225 226 227 229 231 230 230 232 234 232 228 227 226 222 219 218 221
326 326 327 328 329 330 330 330 328 326 325 325 326 325 325 324 323 321 320 318 317 316 314 313 311 310 309 309 308 307 306 305 302 299 294 290 285 282 279 275 272 269 266 264 261 259 257 256 254 253 251 249 249 247 245 244 242 242 241 239 236 235 234 233 232 230 229 228 227 226 226 225 227 228 229 230 230 230 230 233 233 228 226 227 223 219 216 216
326 327 328 330 331 331 331 329 326 325 325 326 326 325 324 324 323 322 321 320 319 318 317 316 314 313 313 312 311 309 308 307 305 302 297 293 288 284 280 276 273 270 267 264 262 260 258 256 254 253 251 249 248 247 245 244 242 239 238 238 237 235 233 232 232 231 230 229 228 227 227 226 227 228 230 230 231 232 231 233 235 231 226 226 224 219 216 216
327 329 331 332 332 332 330 328 327 327 327 327 326 325 325 325 325 323 322 322 322 321 320 319 317 316 316 314 313 311 310 309 306 303 299 295 291 287 282 278 274 271 267 265 262 260 258 256 254 252 250 249 248 246 245 244 242 238 236 236 236 235 233 232 232 232 233 232 230 229 229 228 228 229 231 231 231 232 232 232 235 234 230 228 224 221 219 217
330 332 332 333 332 331 329 329 329 329 329 327 327 326 326 326 326 325 325 325 325 324 323 321 319 319 319 317 315 313 311 310 309 306 301 296 292 288 284 280 276 272 268 265 263 260 258 256 254 252 250 249 248 246 245 244 243 240 236 235 236 234 233 231 230 230 231 232 232 231 230 230 230 229 231 232 230 231 232 231 233 234 232 231 227 224 222 219
333 333 333 333 332 331 332 332 332 331 329 329 329 328 328 329 329 329 328 328 328 327 325 323 321 321 321 319 317 316 314 313 311 308 304 298 293 290 286 282 277 273 269 266 263 260 258 255 254 252 250 248 247 246 245 243 242 240 237 235 234 233 232 231 230 228 228 229 230 229 228 228 229 228 229 232 231 230 231 231 231 232 232 232 229 225 223 222
333 333 334 334 334 334 334 334 333 331 331 331 331 331 331 331 332 331 331 331 331 329 327 326 325 325 325 323 321 319 317 315 313 309 306 302 297 293 288 284 279 274 270 266 262 259 257 255 253 251 249 247 246 245 244 242 241 239 237 235 234 232 231 231 230 228 227 227 228 228 226 225 227 227 226 229 231 231 230 231 231 231 230 231 230 227 224 223
333 334 335 335 336 336 335 334 333 333 333 333 333 333 334 334 334 334 334 334 333 331 330 331 331 330 329 328 325 324 320 318 315 312 309 306 302 297 292 287 281 276 271 266 262 259 256 254 251 250 248 247 245 244 242 241 239 239 237 235 234 233 230 230 229 228 227 226 227 228 226 224 225 225 223 226 230 231 230 231 231 230 230 230 230 229 227 224
333 334 336 337 338 337 336 335 335 335 335 335 335 336 336 337 337 338 337 336 335 335 336 337 336 334 334 333 330 328 325 322 320 316 313 310 305 300 295 290 284 279 273 268 264 259 255 252 250 248 247 246 244 242 241 240 238 238 237 235 234 233 230 229 229 227 227 226 226 227 226 224 224 224 223 224 227 230 230 230 230 230 229 230 228 228 228 227
334 335 337 339 339 338 337 337 337 336 336 337 338 339 340 341 342 342 339 338 338 340 340 341 341 339 339 338 335 333 330 327 324 320 317 314 309 304 299 294 288 282 276 271 265 260 256 251 248 246 245 244 243 242 240 239 238 237 236 235 234 233 231 230 229 227 227 226 225 226 225 223 224 224 223 224 225 228 229 228 228 228 227 228 228 227 226 226
334 337 339 340 340 339 339 338 338 337 338 339 341 342 344 346 346 345 343 342 343 343 343 344 345 344 343 342 340 338 335 331 328 325 322 318 313 309 304 298 292 286 280 274 268 262 257 253 248 245 243 242 241 241 240 239 237 236 236 235 233 233 232 231 230 228 227 226 226 226 223 221 222 223 223 224 225 226 227 227 227 227 226 225 226 226 225 224
335 338 340 341 341 341 340 339 338 339 341 342 344 346 348 349 349 349 348 347 346 345 346 347 348 348 347 347 345 342 339 336 333 330 327 322 318 313 308 302 296 291 285 279 273 267 261 256 251 246 243 241 240 239 239 238 237 236 235 235 234 232 231 231 230 229 227 226 226 226 222 218 220 221 222 223 224 225 226 227 226 227 226 224 224 225 224 224
337 338 340 342 342 341 340 339 340 341 343 345 347 349 350 351 351 352 350 349 349 348 349 350 350 350 350 350 349 346 343 340 337 335 331 327 323 318 312 307 302 296 290 283 277 271 265 259 254 249 245 242 240 239 238 238 237 236 235 235 234 232 231 231 231 229 227 226 226 227 222 218 219 220 222 223 223 224 225 226 227 227 227 225 223 223 223 223
337 339 341 342 342 342 341 341 342 343 345 348 350 350 352 353 353 352 351 351 352 352 353 353 352 353 353 353 351 349 347 344 341 338 335 332 328 322 317 312 307 301 294 287 280 273 266 261 256 252 249 245 243 240 239 238 237 236 235 234 234 233 232 231 231 230 228 226 225 226 223 218 219 221 223 225 225 225 226 227 228 228 228 227 224 222 221 220
338 339 341 342 343 342 341 342 343 345 348 350 352 353 354 355 354 353 353 353 354 355 356 354 354 354 354 354 353 351 349 347 344 341 339 336 332 327 322 317 311 305 297 289 282 274 268 263 259 255 251 248 245 243 242 240 239 237 236 235 234 234 233 232 231 231 230 227 225 225 223 218 218 219 221 224 226 226 226 227 229 229 229 229 227 224 223 222
338 340 341 343 344 342 341 343 345 348 351 353 355 356 356 356 356 356 355 355 356 356 356 356 355 354 354 355 355 353 351 349 347 345 343 340 337 332 327 321 315 307 299 291 284 277 271 267 262 258 253 250 247 245 243 242 241 239 237 237 236 234 233 233 232 232 231 229 225 225 223 219 218 218 219 222 224 225 225 226 229 230 230 230 229 226 224 225
339 340 342 345 344 342 343 345 348 352 355 357 357 358 358 359 359 359 358 357 357 357 357 357 356 355 356 356 355 354 352 351 350 349 347 344 341 338 332 326 318 310 302 295 288 282 276 271 266 260 254 250 248 246 244 243 242 241 238 238 237 236 234 234 233 233 233 230 227 225 223 221 219 219 219 220 223 224 224 225 227 230 231 231 230 228 225 225
340 342 345 347 345 343 345 347 350 353 357 359 358 359 0 0 1 0 360 359 358 357 357 358 358 357 356 356 355 354 353 352 353 352 351 348 345 343 338 331 322 313 306 299 292 284 280 276 268 259 253 250 248 246 244 243 242 241 240 238 238 237 235 235 235 234 233 231 229 227 223 220 220 219 219 220 221 223 223 224 225 228 230 231 230 229 227 225
342 345 347 348 346 345 345 348 350 354 358 359 360 1 0 0 1 1 1 360 358 358 358 358 358 357 355 355 355 355 354 354 355 355 354 352 350 348 344 336 327 319 311 303 294 285 280 276 271 264 258 252 248 246 245 243 242 241 240 239 239 238 236 236 235 234 234 232 229 227 224 220 220 220 219 220 221 221 222 222 223 225 228 230 230 229 228 226
347 350 350 349 347 345 346 348 351 355 358 359 0 360 359 359 0 1 1 360 358 358 358 357 357 357 355 356 356 356 356 356 357 358 357 356 354 352 349 342 334 327 320 309 298 288 281 276 271 266 262 257 253 249 248 246 244 242 241 241 240 239 237 236 236 235 234 233 230 227 224 220 220 220 219 219 220 220 221 221 222 224 225 228 229 228 228 226
353 354 354 351 347 344 345 348 351 355 357 359 360 358 358 358 359 1 1 359 358 359 359 357 357 357 357 357 357 357 358 358 358 359 359 359 358 356 354 350 344 337 329 316 302 294 287 280 272 265 261 259 256 253 250 248 247 244 242 241 241 240 238 237 237 236 234 234 232 228 224 221 220 220 219 220 220 219 221 221 222 223 224 226 227 226 226 225
355 355 354 353 350 346 345 347 351 354 356 357 358 357 356 357 359 1 359 357 358 359 358 357 356 357 358 358 358 359 359 359 359 360 1 1 1 1 359 357 353 347 340 326 311 302 293 283 275 267 262 260 259 257 254 252 249 246 244 242 242 241 240 239 238 237 235 234 234 230 224 220 220 220 219 220 220 219 220 220 221 223 223 224 227 227 225 224
354 354 352 352 352 350 349 348 351 353 354 355 356 355 354 355 359 360 357 356 358 358 357 357 357 357 358 359 359 359 359 360 360 0 2 3 3 3 3 3 1 357 352 342 327 317 303 290 282 275 269 264 261 259 258 257 255 251 248 245 243 243 242 241 239 239 237 235 235 233 226 219 220 221 219 219 219 218 219 219 219 221 223 223 226 227 226 224
352 352 351 350 351 352 352 351 351 352 353 354 354 353 353 355 358 357 354 356 358 357 356 356 356 358 359 360 360 360 360 0 1 1 3 4 4 5 6 6 6 4 0 354 344 335 324 310 299 289 281 273 266 262 259 259 259 258 254 250 247 244 243 243 242 241 239 236 236 236 228 218 218 221 219 217 218 217 218 218 218 219 221 222 224 226 226 224
350 350 350 350 350 351 351 352 351 351 352 353 352 352 352 355 356 353 353 356 357 356 356 356 356 358 359 0 0 -0 0 1 1 2 3 4 5 5 7 8 7 7 5 1 355 348 342 334 325 313 299 287 276 270 264 260 260 260 259 256 253 250 246 244 243 242 241 238 236 237 232 219 215 220 221 218 217 217 217 218 217 218 219 221 223 225 225 224
349 350 349 349 349 350 350 350 350 350 351 351 352 351 351 354 353 351 352 355 355 355 355 356 357 358 359 0 0 0 1 1 1 2 3 4 5 5 6 7 7 7 8 8 5 360 355 349 345 337 322 306 292 282 273 266 262 262 263 261 258 256 253 248 244 243 242 240 238 238 236 224 214 219 223 220 217 217 218 218 218 217 218 219 222 224 225 224
349 349 348 348 349 350 350 349 348 348 348 349 351 350 352 353 350 349 352 354 354 354 355 356 357 358 359 360 0 1 1 1 1 2 3 4 5 5 5 5 5 6 8 11 12 11 8 5 3 359 351 339 325 312 297 282 270 267 268 267 266 263 260 255 249 245 242 242 241 240 239 229 214 216 224 223 218 217 218 219 219 217 217 218 220 223 225 225
348 349 348 348 349 351 350 348 347 346 345 346 349 350 352 351 348 348 351 352 353 354 354 355 356 357 359 360 0 1 1 1 2 2 3 4 5 5 4 4 4 5 6 8 10 11 11 9 6 2 359 353 343 336 326 316 307 294 283 278 277 274 270 265 258 251 246 244 243 242 239 231 217 214 221 223 220 217 217 218 219 219 217 217 219 221 224 224
347 348 347 348 350 351 349 347 345 343 342 344 346 349 351 349 347 348 350 350 352 353 353 354 356 357 359 360 360 0 1 1 2 3 3 4 5 5 4 3 3 4 6 7 8 8 9 7 3 359 356 353 350 345 338 334 333 325 313 302 294 289 284 278 269 260 252 245 243 242 240 234 222 216 218 222 221 218 217 217 219 219 218 217 218 220 222 223
346 346 346 348 349 349 347 344 342 341 342 344 345 348 350 349 348 349 349 349 351 353 353 353 355 357 359 360 360 360 1 1 2 3 3 4 5 5 4 3 3 3 4 8 11 10 8 4 0 356 352 351 351 348 344 343 343 338 333 326 314 305 296 288 279 268 258 248 243 242 240 235 227 219 216 219 221 219 217 217 218 218 218 217 218 218 220 222
345 344 345 346 346 347 345 342 340 341 344 344 344 346 348 349 349 349 348 349 351 352 353 353 355 357 359 359 360 360 -0 1 2 3 3 4 5 5 4 3 2 2 2 4 8 10 8 2 358 356 351 349 351 350 348 349 351 348 345 336 322 314 307 298 288 273 261 251 244 240 236 233 228 221 216 217 220 220 217 215 216 217 217 217 217 217 218 220
344 342 342 341 340 342 343 341 340 342 344 343 343 345 347 348 349 348 347 349 351 351 352 353 355 357 358 358 359 359 360 1 3 3 4 4 5 5 4 3 2 1 1 1 2 4 4 1 358 356 353 351 355 356 354 356 359 357 351 339 326 319 314 306 295 279 263 252 244 237 232 229 228 222 216 215 219 221 218 215 215 215 216 216 216 216 217 219
342 341 341 337 335 338 340 341 341 341 342 342 342 345 347 348 349 348 347 349 351 351 351 354 355 356 358 358 358 358 360 1 3 4 4 4 5 6 5 4 2 360 359 0 1 1 0 360 358 355 352 352 357 1 1 4 3 358 351 343 336 329 322 316 307 290 269 253 244 238 231 228 228 224 218 214 216 220 220 216 215 215 215 215 215 216 216 218
338 339 338 334 333 335 337 341 341 338 339 341 342 344 347 348 347 346 347 349 351 351 352 354 355 356 357 358 358 358 359 1 3 4 4 4 5 6 6 5 3 360 358 358 1 1 359 357 354 352 349 350 356 2 7 10 5 359 355 352 351 347 341 333 322 305 281 260 248 241 233 228 226 223 219 216 215 217 219 218 216 215 215 215 215 215 216 217
333 333 332 332 334 335 336 339 340 337 338 340 341 345 347 347 346 346 347 349 351 351 352 354 355 356 357 358 358 358 358 0 2 3 4 5 5 6 6 6 5 1 358 358 359 359 359 356 353 349 346 349 1 7 9 10 8 9 8 4 3 2 355 344 333 322 304 277 255 243 236 231 227 222 218 217 215 216 219 220 218 217 217 215 215 216 216 217
329 327 328 332 336 336 335 337 339 339 339 340 341 345 346 345 345 346 348 350 350 351 352 354 355 356 357 357 358 359 358 360 2 3 4 5 5 5 6 6 6 3 0 359 357 357 358 356 353 349 344 350 6 10 10 13 14 15 16 13 10 7 1 354 348 343 331 309 275 250 240 235 230 224 219 217 216 217 219 221 220 218 217 216 216 218 218 217
324 323 325 330 334 335 335 336 338 340 340 340 342 344 345 345 344 345 348 350 350 350 351 354 355 356 357 357 358 359 359 359 2 4 4 4 5 6 5 6 6 5 3 1 358 356 357 356 355 350 344 347 2 8 12 17 19 19 20 19 16 12 7 3 3 2 355 343 315 268 244 234 228 224 221 217 216 217 218 221 221 218 216 216 216 217 219 219
320 319 322 328 332 333 334 335 337 338 338 340 342 344 345 344 343 344 347 349 350 350 351 354 355 356 357 357 357 358 359 359 1 3 5 5 4 5 5 5 6 5 4 2 0 359 357 355 355 352 347 348 359 9 13 14 16 20 21 20 21 20 15 11 14 17 16 11 356 316 257 236 227 223 221 218 216 216 216 218 221 219 216 215 216 216 218 219
318 319 321 325 328 331 332 333 335 336 337 339 342 344 344 343 343 344 345 348 350 350 351 353 354 355 357 358 357 357 358 359 -0 2 4 5 4 4 5 5 6 5 4 3 1 2 1 358 355 351 349 352 359 7 11 10 12 19 21 19 20 22 20 19 25 29 30 29 22 9 327 244 230 224 222 219 217 216 215 214 217 219 218 215 215 216 216 218
317 318 319 321 325 329 330 331 332 334 336 338 341 343 342 342 343 344 345 348 350 350 350 351 352 354 356 358 358 357 357 358 359 0 2 4 5 4 5 5 5 5 5 3 1 2 2 2 2 356 350 348 354 359 2 5 10 16 20 18 17 17 17 22 33 39 40 40 37 34 33 324 229 225 221 219 217 216 214 212 212 216 219 218 216 216 216 217
315 315 317 319 323 327 328 329 330 333 335 337 338 339 340 341 342 343 345 347 349 349 349 349 351 353 355 356 358 358 357 357 359 360 1 3 4 4 4 5 5 5 5 3 1 0 0 1 6 5 353 342 337 340 353 2 6 11 16 18 16 13 13 20 31 40 45 47 47 47 48 51 183 220 221 218 217 216 214 212 211 213 217 218 218 217 216 217
312 312 316 319 322 325 326 327 329 333 335 335 335 336 338 340 342 342 344 347 347 348 348 348 350 352 353 354 356 358 358 357 358 359 0 2 3 4 4 5 5 5 5 4 2 360 358 358 2 5 357 347 343 347 358 3 3 5 10 16 18 14 13 17 22 32 44 50 52 53 54 55 67 178 216 218 217 216 216 214 212 212 214 216 217 217 217 218
309 311 314 318 321 323 325 326 329 332 333 333 333 334 336 339 340 341 343 346 346 346 346 347 349 351 352 353 355 357 358 357 357 358 359 2 3 3 3 4 5 5 4 4 3 360 357 356 359 1 357 352 351 352 359 1 358 358 3 14 19 14 11 9 8 17 35 48 54 53 54 58 63 82 165 210 216 216 217 216 214 213 214 216 217 217 217 218
309 312 314 316 319 322 323 326 328 330 330 330 331 332 334 337 339 340 342 344 344 344 344 346 348 350 351 352 353 355 357 357 357 357 358 1 3 3 3 3 5 5 4 4 3 1 357 355 357 359 357 355 352 351 356 358 353 351 2 18 20 10 5 3 4 10 18 33 51 55 55 60 64 72 98 168 206 213 215 217 216 215 215 217 218 218 217 217
310 313 314 315 317 320 322 325 326 327 327 327 328 330 332 334 337 339 340 341 342 342 342 345 347 348 350 351 352 353 355 357 357 356 357 359 1 2 3 3 5 5 5 4 3 1 358 355 355 357 357 355 353 352 352 352 351 353 5 20 19 6 2 3 6 9 9 15 38 53 55 59 66 74 86 116 179 204 209 212 216 217 217 218 220 221 221 219
311 312 313 314 316 318 321 323 323 323 324 324 326 327 329 332 335 336 337 339 339 340 341 343 345 347 348 350 351 352 354 356 356 356 356 358 360 1 2 3 4 6 5 4 3 2 359 356 354 354 354 354 353 351 347 344 348 349 356 12 12 4 1 2 5 9 10 11 24 47 55 55 61 71 81 98 133 185 201 205 210 214 217 219 221 222 223 223
310 311 312 314 315 317 319 319 318 319 321 322 324 325 327 330 333 334 335 336 337 339 340 342 343 345 347 349 350 351 353 355 356 355 355 356 359 360 1 1 2 5 6 4 3 2 360 357 354 352 352 353 354 351 344 340 340 341 352 6 2 352 348 350 355 7 17 20 23 41 56 56 56 63 72 89 113 152 186 196 203 209 214 219 221 223 223 223
308 309 311 313 314 315 316 315 315 316 319 321 322 323 325 328 331 332 332 334 335 337 339 340 342 343 346 348 349 350 352 353 354 355 355 355 357 358 359 0 1 3 5 4 3 2 1 358 355 351 350 351 354 351 343 337 334 340 352 352 336 328 329 334 344 8 27 30 25 31 55 65 64 65 70 83 103 132 163 183 195 203 209 216 220 223 224 224
Height
10740 10739 10737 10735 10733 10731 10729 10728 10726 10724 10722 10720 10718 10716 10714 10711 10709 10707 10705 10703 10701 10699 10697 10695 10692 10690 10687 10685 10682 10679 10677 10676 10674 10670 10668 10666 10664 10663 10660 10658 10658 10658 10657 10655 10654 10654 10654 10654 10655 10656 10657 10658 10661 10662 10660 10665 10669 10672 10680 10688 10698 10704 10707 10707 10705 10708 10713 10715 10716 10714 10715 10721 10725 10725 10727 10725 10720 10726 10735 10740 10748 10756 10762 10767 10770 10775 10780 10783
10739 10737 10735 10733 10731 10729 10727 10725 10724 10722 10720 10718 10716 10714 10711 10709 10707 10705 10703 10700 10698 10696 10693 10690 10688 10685 10682 10679 10676 10673 10671 10669 10666 10662 10660 10658 10656 10654 10652 10650 10648 10648 10648 10647 10645 10644 10644 10645 10646 10647 10649 10650 10652 10653 10652 10657 10660 10665 10673 10681 10691 10696 10695 10694 10694 10699 10703 10706 10706 10705 10707 10713 10718 10717 10715 10715 10715 10720 10728 10734 10740 10749 10756 10760 10764 10771 10775 10779
10737 10735 10733 10731 10729 10727 10725 10723 10721 10719 10717 10715 10713 10711 10709 10707 10704 10702 10700 10697 10695 10692 10689 10686 10683 10680 10676 10673 10670 10667 10664 10663 10659 10655 10652 10649 10646 10644 10642 10641 10639 10638 10638 10637 10636 10634 10634 10635 10637 10638 10640 10640 10643 10643 10644 10648 10651 10657 10664 10674 10685 10685 10681 10682 10686 10690 10693 10695 10696 10696 10699 10705 10710 10707 10705 10707 10711 10715 10720 10727 10735 10743 10751 10754 10758 10765 10769 10774
10735 10733 10731 10729 10727 10725 10723 10721 10719 10717 10715 10713 10711 10709 10706 10704 10701 10699 10696 10693 10690 10688 10684 10681 10678 10674 10670 10667 10663 10660 10657 10655 10651 10647 10644 10641 10638 10635 10633 10631 10630 10628 10628 10627 10626 10625 10624 10625 10627 10629 10631 10631 10632 10634 10636 10638 10641 10647 10654 10667 10675 10670 10668 10673 10677 10680 10681 10683 10685 10688 10691 10697 10700 10698 10697 10700 10707 10711 10715 10721 10730 10739 10744 10747 10752 10757 10763 10770
10733 10731 10729 10727 10725 10723 10721 10719 10717 10714 10712 10710 10708 10706 10703 10701 10698 10695 10692 10689 10686 10683 10679 10675 10672 10668 10664 10660 10656 10652 10649 10647 10643 10639 10636 10632 10630 10627 10624 10622 10620 10618 10617 10616 10616 10615 10614 10615 10617 10619 10621 10621 10622 10624 10627 10628 10631 10637 10646 10658 10660 10654 10659 10665 10667 10669 10671 10672 10676 10680 10685 10690 10689 10687 10691 10694 10701 10707 10710 10716 10723 10733 10737 10740 10745 10750 10757 10764
10731 10729 10727 10725 10723 10721 10719 10717 10714 10712 10710 10707 10705 10703 10700 10697 10694 10691 10688 10685 10681 10678 10674 10670 10666 10661 10657 10653 10649 10645 10641 10638 10634 10631 10628 10624 10621 10619 10616 10613 10611 10609 10607 10606 10606 10605 10605 10605 10607 10609 10612 10612 10613 10615 10617 10618 10622 10630 10639 10646 10644 10642 10651 10656 10656 10660 10662 10664 10669 10674 10678 10681 10679 10681 10687 10690 10698 10704 10707 10709 10714 10724 10731 10733 10738 10744 10751 10756
10729 10726 10724 10722 10720 10718 10716 10714 10712 10709 10707 10705 10702 10699 10697 10694 10691 10687 10684 10680 10677 10673 10669 10664 10660 10656 10651 10647 10642 10638 10633 10630 10626 10623 10619 10615 10612 10610 10608 10605 10602 10600 10597 10596 10596 10595 10595 10596 10597 10600 10602 10601 10602 10605 10606 10609 10614 10622 10629 10630 10628 10632 10642 10645 10648 10653 10655 10658 10664 10666 10669 10673 10674 10678 10684 10689 10698 10702 10704 10706 10708 10717 10724 10726 10732 10738 10743 10748
10726 10724 10722 10720 10718 10716 10713 10711 10709 10707 10705 10702 10699 10696 10693 10690 10687 10683 10680 10676 10672 10668 10663 10659 10654 10650 10646 10641 10636 10630 10625 10622 10618 10616 10612 10607 10603 10601 10598 10595 10593 10590 10588 10587 10586 10585 10585 10586 10587 10589 10590 10590 10592 10593 10596 10600 10604 10612 10616 10615 10615 10623 10634 10638 10642 10648 10650 10655 10660 10663 10667 10670 10673 10676 10681 10689 10699 10699 10699 10702 10703 10710 10718 10722 10727 10733 10737 10743
10724 10722 10720 10718 10716 10713 10711 10709 10706 10704 10701 10698 10696 10693 10690 10687 10683 10680 10676 10672 10667 10663 10658 10654 10649 10645 10641 10635 10629 10624 10618 10614 10609 10606 10604 10600 10595 10592 10589 10586 10583 10581 10578 10577 10576 10576 10575 10575 10576 10577 10579 10580 10582 10583 10587 10592 10595 10601 10605 10605 10607 10615 10624 10626 10632 10638 10641 10647 10652 10656 10662 10665 10669 10674 10680 10688 10693 10691 10690 10694 10696 10701 10711 10716 10721 10727 10733 10738
10722 10720 10718 10716 10713 10711 10709 10706 10703 10701 10698 10695 10692 10689 10686 10683 10680 10676 10671 10667 10663 10658 10653 10649 10644 10640 10636 10629 10623 10617 10611 10607 10602 10597 10594 10590 10587 10583 10580 10576 10574 10571 10569 10567 10566 10565 10564 10565 10566 10566 10569 10569 10571 10574 10578 10582 10585 10589 10593 10595 10598 10605 10611 10614 10619 10626 10630 10635 10639 10644 10650 10656 10661 10668 10677 10682 10682 10681 10681 10685 10688 10694 10704 10709 10713 10721 10726 10731
10720 10718 10716 10714 10711 10709 10706 10703 10700 10697 10695 10692 10689 10686 10683 10679 10676 10671 10667 10663 10658 10654 10649 10644 10639 10635 10630 10623 10617 10612 10605 10601 10596 10590 10585 10580 10577 10574 10570 10567 10564 10561 10559 10557 10556 10555 10554 10555 10556 10556 10557 10558 10561 10564 10567 10571 10574 10576 10580 10584 10587 10593 10600 10604 10610 10616 10619 10623 10627 10630 10637 10646 10652 10660 10671 10671 10667 10670 10674 10676 10679 10687 10697 10701 10708 10716 10719 10722
10718 10716 10714 10711 10709 10706 10704 10701 10698 10695 10692 10689 10686 10683 10679 10676 10672 10668 10663 10659 10654 10650 10645 10639 10633 10628 10624 10617 10611 10606 10599 10594 10589 10583 10578 10571 10567 10565 10561 10557 10554 10551 10549 10547 10546 10545 10545 10545 10546 10546 10546 10548 10551 10553 10556 10560 10563 10565 10569 10574 10577 10582 10590 10594 10598 10604 10607 10613 10616 10618 10627 10638 10643 10652 10662 10660 10656 10660 10666 10669 10672 10681 10689 10694 10704 10710 10712 10716
10716 10714 10712 10709 10707 10704 10701 10698 10695 10692 10689 10686 10683 10679 10676 10672 10668 10664 10660 10656 10651 10646 10640 10634 10628 10622 10618 10611 10604 10599 10592 10587 10581 10575 10571 10564 10558 10555 10552 10547 10544 10541 10539 10537 10536 10535 10535 10535 10536 10536 10536 10537 10540 10541 10545 10548 10552 10554 10558 10563 10567 10572 10580 10583 10585 10591 10595 10602 10607 10608 10620 10633 10637 10645 10651 10649 10648 10649 10654 10659 10663 10671 10679 10685 10693 10698 10703 10709
10714 10712 10710 10707 10704 10701 10698 10695 10692 10689 10686 10683 10680 10676 10673 10669 10665 10661 10657 10653 10647 10642 10636 10630 10623 10616 10612 10606 10599 10593 10586 10580 10574 10567 10562 10557 10550 10546 10543 10538 10534 10532 10529 10528 10526 10525 10525 10525 10526 10526 10526 10527 10529 10531 10534 10537 10541 10544 10547 10552 10557 10562 10569 10571 10574 10580 10585 10593 10596 10596 10612 10628 10632 10638 10642 10640 10638 10636 10640 10647 10651 10657 10666 10674 10679 10685 10692 10697
10712 10710 10707 10705 10702 10699 10696 10693 10690 10687 10684 10681 10677 10674 10670 10666 10663 10659 10654 10649 10643 10638 10632 10626 10620 10612 10605 10600 10593 10587 10581 10574 10567 10560 10555 10549 10543 10537 10533 10530 10525 10522 10520 10518 10517 10516 10515 10515 10515 10516 10516 10517 10519 10521 10524 10527 10531 10534 10537 10542 10547 10552 10558 10561 10563 10569 10575 10582 10583 10585 10604 10621 10623 10627 10629 10628 10626 10625 10628 10634 10639 10643 10650 10661 10666 10672 10681 10686
10710 10708 10705 10703 10700 10696 10693 10690 10688 10685 10682 10678 10674 10671 10667 10664 10660 10655 10650 10645 10640 10635 10629 10622 10616 10609 10601 10593 10587 10581 10576 10568 10560 10554 10547 10541 10536 10529 10525 10521 10517 10514 10512 10510 10508 10507 10506 10506 10506 10506 10507 10508 10510 10511 10513 10517 10520 10524 10528 10531 10536 10542 10547 10550 10552 10558 10564 10570 10573 10577 10596 10610 10609 10612 10614 10613 10613 10613 10617 10623 10627 10630 10636 10648 10654 10661 10674 10683
10709 10706 10703 10701 10698 10694 10691 10688 10685 10682 10679 10676 10672 10669 10665 10661 10656 10651 10646 10642 10637 10631 10624 10618 10612 10605 10596 10588 10580 10574 10569 10562 10554 10547 10541 10534 10528 10522 10517 10514 10510 10507 10505 10503 10501 10499 10498 10498 10497 10497 10498 10499 10501 10502 10504 10506 10509 10514 10519 10521 10525 10531 10536 10538 10540 10545 10551 10558 10562 10567 10585 10599 10598 10600 10600 10598 10601 10604 10609 10614 10618 10621 10626 10636 10646 10657 10671 10680
10707 10704 10702 10699 10696 10693 10690 10687 10683 10680 10677 10673 10670 10665 10661 10657 10652 10648 10643 10639 10634 10627 10620 10613 10607 10600 10592 10584 10577 10569 10563 10556 10548 10541 10534 10527 10521 10516 10511 10507 10504 10501 10497 10495 10494 10492 10489 10489 10489 10489 10491 10492 10493 10494 10494 10496 10499 10504 10509 10512 10514 10519 10525 10528 10529 10533 10538 10546 10552 10558 10575 10590 10592 10595 10594 10593 10597 10600 10605 10610 10612 10615 10620 10628 10640 10652 10661 10666
10705 10702 10700 10697 10694 10691 10688 10685 10682 10679 10675 10672 10668 10663 10658 10654 10650 10645 10639 10634 10629 10623 10616 10609 10602 10595 10589 10582 10574 10565 10558 10552 10544 10536 10528 10521 10515 10510 10505 10501 10497 10494 10490 10488 10486 10484 10482 10481 10482 10483 10484 10484 10485 10486 10487 10488 10491 10496 10500 10502 10504 10509 10514 10518 10520 10523 10526 10535 10543 10549 10563 10577 10581 10583 10586 10588 10590 10595 10603 10608 10608 10611 10615 10623 10634 10647 10653 10655
10703 10701 10698 10695 10692 10689 10686 10683 10681 10677 10674 10670 10666 10662 10657 10652 10647 10641 10635 10629 10623 10617 10612 10604 10597 10591 10585 10576 10568 10560 10553 10547 10539 10530 10523 10516 10510 10504 10499 10494 10490 10487 10483 10480 10479 10476 10475 10475 10476 10477 10477 10477 10477 10478 10480 10480 10483 10488 10491 10492 10494 10500 10504 10507 10511 10513 10515 10524 10535 10541 10553 10565 10568 10570 10574 10577 10579 10586 10596 10601 10603 10606 10611 10617 10628 10639 10647 10652
10701 10699 10696 10693 10690 10687 10684 10681 10679 10675 10672 10667 10663 10659 10654 10649 10643 10637 10630 10624 10618 10613 10607 10599 10591 10583 10576 10569 10563 10556 10549 10544 10536 10526 10518 10511 10505 10500 10494 10489 10484 10480 10477 10474 10472 10469 10468 10469 10470 10471 10470 10469 10470 10471 10472 10473 10476 10479 10482 10483 10485 10490 10495 10498 10501 10503 10505 10515 10528 10535 10545 10556 10559 10562 10567 10568 10571 10579 10589 10594 10597 10601 10606 10612 10622 10631 10640 10648
10700 10697 10694 10691 10689 10686 10683 10680 10677 10674 10670 10666 10662 10657 10651 10646 10640 10634 10628 10621 10615 10609 10602 10595 10588 10579 10573 10569 10563 10555 10546 10538 10531 10523 10514 10506 10500 10495 10489 10484 10479 10475 10471 10469 10467 10464 10462 10462 10464 10464 10463 10463 10463 10464 10465 10466 10468 10470 10472 10475 10476 10480 10486 10488 10490 10493 10496 10506 10518 10524 10533 10544 10548 10553 10559 10560 10563 10571 10579 10585 10588 10592 10597 10603 10614 10622 10631 10639
10698 10695 10692 10690 10687 10684 10682 10679 10676 10672 10668 10664 10659 10654 10649 10644 10639 10633 10627 10620 10613 10606 10599 10593 10587 10581 10575 10570 10562 10553 10544 10534 10526 10518 10510 10502 10495 10489 10484 10479 10474 10471 10467 10465 10463 10460 10458 10457 10457 10457 10457 10457 10458 10457 10458 10460 10461 10463 10465 10467 10469 10472 10476 10478 10479 10483 10486 10494 10504 10509 10519 10532 10536 10540 10547 10549 10551 10557 10564 10570 10576 10582 10588 10595 10606 10614 10621 10628
10696 10693 10690 10688 10686 10683 10680 10677 10673 10669 10665 10661 10656 10651 10647 10642 10637 10632 10625 10619 10613 10606 10598 10591 10585 10580 10573 10565 10557 10549 10540 10531 10522 10515 10507 10500 10492 10486 10480 10475 10470 10467 10464 10461 10459 10457 10455 10454 10453 10453 10452 10452 10452 10453 10453 10454 10455 10457 10459 10460 10462 10464 10467 10469 10469 10473 10478 10482 10489 10495 10506 10521 10526 10528 10533 10533 10537 10546 10554 10561 10569 10575 10581 10587 10594 10602 10610 10617
10694 10692 10689 10686 10684 10681 10678 10674 10670 10666 10662 10658 10653 10649 10645 10640 10635 10629 10623 10618 10612 10605 10598 10591 10584 10578 10570 10561 10554 10545 10536 10526 10518 10512 10505 10498 10491 10484 10477 10472 10467 10463 10461 10458 10455 10453 10452 10450 10450 10449 10448 10447 10448 10449 10449 10450 10450 10452 10453 10454 10455 10457 10458 10461 10461 10465 10469 10471 10475 10482 10495 10510 10514 10515 10520 10523 10530 10542 10548 10555 10562 10567 10573 10577 10578 10587 10597 10606
10693 10690 10688 10685 10682 10679 10675 10672 10668 10664 10659 10655 10651 10647 10643 10638 10631 10625 10620 10616 10609 10602 10596 10590 10583 10575 10568 10560 10551 10542 10533 10525 10517 10510 10503 10496 10489 10483 10476 10470 10465 10461 10459 10456 10453 10451 10449 10447 10446 10446 10446 10445 10445 10445 10445 10446 10446 10447 10448 10449 10450 10451 10451 10453 10455 10457 10461 10462 10464 10469 10484 10499 10501 10501 10509 10515 10523 10533 10538 10545 10554 10558 10564 10568 10568 10577 10587 10596
10691 10689 10686 10684 10681 10677 10674 10670 10665 10661 10657 10653 10649 10645 10640 10635 10628 10621 10618 10613 10606 10599 10593 10587 10580 10572 10564 10556 10548 10539 10532 10524 10515 10507 10500 10493 10487 10482 10476 10470 10465 10460 10457 10454 10451 10449 10447 10445 10444 10443 10443 10443 10443 10443 10442 10442 10442 10443 10444 10445 10445 10445 10446 10447 10448 10450 10452 10455 10456 10459 10471 10485 10488 10489 10495 10500 10507 10517 10524 10532 10542 10546 10553 10558 10560 10567 10578 10587
10689 10687 10684 10681 10678 10675 10671 10667 10663 10659 10655 10650 10646 10642 10637 10631 10624 10619 10616 10610 10603 10597 10590 10584 10577 10569 10561 10553 10545 10537 10529 10521 10513 10504 10498 10491 10485 10480 10474 10469 10464 10460 10456 10453 10451 10449 10447 10444 10443 10442 10441 10441 10441 10440 10440 10440 10439 10439 10439 10440 10440 10440 10440 10440 10441 10443 10444 10448 10450 10446 10452 10466 10474 10475 10478 10485 10493 10503 10511 10518 10527 10534 10541 10547 10549 10555 10566 10576
10687 10685 10682 10679 10675 10672 10669 10665 10661 10657 10652 10647 10643 10638 10634 10628 10621 10617 10613 10605 10599 10594 10588 10581 10574 10566 10558 10550 10543 10536 10527 10519 10511 10504 10497 10490 10484 10478 10473 10468 10464 10460 10457 10453 10451 10448 10446 10444 10442 10441 10440 10439 10438 10438 10437 10437 10436 10436 10435 10435 10434 10434 10434 10434 10435 10436 10436 10440 10439 10430 10433 10452 10466 10466 10467 10475 10484 10493 10500 10505 10514 10524 10531 10538 10542 10545 10554 10564
10686 10683 10679 10677 10673 10669 10666 10662 10658 10654 10649 10645 10641 10636 10631 10624 10619 10616 10610 10603 10597 10592 10586 10579 10570 10563 10555 10548 10542 10534 10526 10518 10511 10504 10497 10490 10484 10478 10473 10470 10466 10462 10459 10455 10451 10448 10446 10444 10442 10440 10438 10437 10436 10435 10434 10434 10434 10432 10431 10430 10429 10428 10428 10428 10429 10428 10428 10429 10426 10422 10428 10448 10465 10467 10463 10469 10480 10488 10493 10497 10505 10515 10522 10529 10533 10537 10544 10555
10684 10681 10678 10675 10671 10668 10664 10660 10656 10651 10647 10644 10640 10635 10628 10622 10618 10613 10607 10601 10596 10589 10582 10575 10568 10561 10555 10548 10541 10532 10525 10518 10511 10504 10497 10490 10484 10478 10473 10469 10465 10462 10458 10455 10451 10448 10445 10443 10441 10439 10437 10435 10433 10432 10431 10430 10430 10429 10428 10426 10425 10424 10422 10422 10421 10421 10420 10420 10419 10422 10427 10441 10459 10463 10457 10462 10475 10483 10486 10490 10497 10505 10513 10520 10526 10530 10537 10548
10682 10679 10676 10673 10670 10666 10662 10658 10654 10650 10647 10643 10639 10633 10626 10621 10617 10611 10604 10599 10595 10588 10582 10576 10570 10562 10554 10547 10539 10532 10525 10518 10511 10504 10497 10491 10484 10478 10473 10468 10464 10459 10455 10452 10449 10447 10444 10442 10440 10438 10436 10434 10431 10429 10427 10426 10426 10425 10424 10423 10421 10419 10417 10415 10414 10414 10414 10414 10415 10418 10422 10432 10447 10451 10446 10450 10461 10470 10474 10480 10487 10495 10505 10514 10519 10523 10529 10538
10681 10678 10675 10671 10668 10664 10661 10657 10654 10650 10646 10641 10636 10630 10625 10621 10616 10610 10604 10599 10594 10588 10581 10576 10570 10562 10554 10546 10539 10533 10526 10519 10512 10505 10498 10492 10486 10480 10475 10470 10465 10461 10456 10452 10448 10445 10443 10441 10439 10436 10434 10433 10430 10428 10425 10423 10422 10420 10419 10418 10416 10415 10413 10411 10409 10408 10409 10409 10409 10411 10417 10427 10435 10437 10438 10441 10448 10457 10464 10470 10477 10487 10500 10509 10511 10514 10519 10527
10679 10676 10673 10670 10666 10663 10659 10656 10653 10649 10644 10638 10632 10628 10623 10619 10614 10607 10602 10597 10592 10587 10580 10573 10568 10561 10554 10546 10539 10533 10526 10520 10512 10505 10499 10492 10486 10481 10475 10470 10466 10462 10458 10454 10451 10447 10444 10441 10439 10437 10433 10431 10429 10427 10424 10422 10420 10418 10416 10414 10412 10410 10409 10407 10405 10403 10403 10403 10404 10408 10414 10420 10423 10426 10431 10433 10436 10445 10455 10464 10471 10481 10493 10499 10500 10504 10511 10518
10677 10674 10671 10668 10665 10662 10658 10654 10650 10646 10641 10636 10630 10626 10621 10617 10613 10607 10602 10596 10590 10585 10579 10573 10565 10559 10552 10546 10540 10534 10527 10521 10513 10506 10499 10493 10486 10480 10475 10469 10465 10460 10456 10453 10450 10449 10446 10443 10440 10438 10435 10432 10429 10426 10423 10421 10418 10416 10413 10411 10409 10406 10404 10403 10401 10399 10397 10398 10401 10404 10408 10410 10412 10417 10422 10426 10428 10433 10444 10455 10464 10472 10479 10481 10485 10495 10504 10508
10675 10672 10669 10665 10662 10660 10656 10652 10647 10642 10638 10634 10630 10626 10621 10616 10613 10608 10603 10597 10590 10584 10578 10572 10564 10557 10551 10545 10539 10535 10529 10522 10515 10507 10501 10494 10488 10481 10475 10470 10465 10461 10457 10453 10449 10447 10445 10442 10438 10436 10433 10431 10429 10425 10421 10419 10416 10414 10412 10410 10407 10404 10401 10399 10397 10395 10394 10395 10396 10397 10399 10401 10403 10409 10415 10420 10423 10427 10436 10444 10449 10454 10458 10462 10474 10486 10494 10496
10673 10670 10667 10663 10659 10656 10653 10648 10644 10640 10637 10634 10630 10626 10621 10616 10611 10607 10602 10597 10591 10584 10577 10571 10564 10558 10552 10545 10538 10533 10528 10522 10515 10508 10502 10496 10490 10484 10477 10471 10466 10462 10459 10455 10451 10446 10442 10440 10437 10434 10432 10429 10427 10424 10421 10418 10415 10413 10411 10408 10405 10402 10399 10396 10394 10392 10391 10391 10391 10392 10394 10396 10398 10404 10411 10415 10418 10421 10426 10431 10435 10437 10440 10451 10465 10476 10482 10485
10670 10667 10664 10661 10657 10653 10650 10646 10642 10638 10635 10633 10630 10626 10621 10615 10610 10606 10600 10594 10589 10584 10576 10570 10564 10558 10552 10546 10539 10532 10526 10520 10514 10509 10503 10496 10490 10485 10479 10473 10468 10464 10460 10456 10452 10448 10444 10441 10438 10436 10433 10429 10426 10424 10421 10418 10415 10412 10409 10406 10403 10399 10396 10394 10392 10390 10389 10388 10388 10389 10391 10391 10393 10399 10405 10408 10411 10413 10414 10418 10424 10426 10433 10447 10459 10464 10470 10477
10667 10664 10662 10659 10655 10652 10648 10645 10642 10637 10633 10630 10626 10623 10619 10614 10610 10604 10598 10592 10587 10582 10575 10569 10563 10557 10552 10546 10540 10533 10527 10521 10515 10509 10503 10497 10490 10485 10480 10474 10469 10465 10460 10456 10452 10449 10446 10443 10440 10438 10435 10431 10426 10423 10419 10416 10413 10410 10406 10403 10400 10398 10395 10393 10390 10388 10387 10387 10387 10387 10388 10388 10390 10394 10398 10401 10405 10407 10407 10410 10417 10424 10434 10447 10454 10457 10463 10471
10665 10661 10658 10656 10653 10650 10647 10643 10640 10637 10633 10628 10624 10620 10616 10612 10608 10603 10598 10592 10586 10580 10575 10569 10563 10557 10551 10545 10541 10536 10530 10523 10517 10510 10503 10497 10491 10485 10479 10474 10470 10466 10461 10457 10453 10450 10446 10443 10440 10438 10435 10431 10427 10424 10420 10416 10412 10409 10406 10403 10400 10397 10395 10392 10389 10387 10386 10385 10386 10385 10385 10387 10389 10392 10395 10397 10401 10404 10405 10409 10416 10426 10438 10448 10451 10453 10459 10467
10663 10659 10655 10653 10651 10649 10646 10641 10637 10634 10632 10628 10624 10619 10614 10609 10604 10600 10596 10592 10586 10581 10576 10570 10564 10559 10552 10545 10540 10536 10530 10524 10518 10512 10504 10497 10492 10486 10480 10474 10470 10466 10462 10458 10454 10450 10446 10444 10441 10438 10435 10431 10428 10424 10421 10417 10413 10410 10407 10404 10400 10397 10394 10391 10389 10387 10386 10385 10384 10384 10384 10385 10386 10388 10391 10393 10396 10399 10404 10408 10415 10425 10436 10442 10445 10448 10454 10463
10661 10657 10653 10650 10648 10646 10643 10640 10636 10632 10629 10626 10623 10618 10613 10607 10602 10597 10594 10590 10585 10580 10575 10570 10564 10559 10553 10546 10539 10534 10529 10524 10518 10513 10507 10500 10494 10488 10482 10476 10470 10466 10462 10458 10455 10451 10447 10443 10440 10438 10435 10431 10427 10423 10420 10417 10414 10411 10408 10404 10401 10397 10394 10391 10389 10387 10385 10384 10383 10383 10383 10383 10384 10386 10388 10390 10392 10395 10401 10407 10414 10421 10427 10431 10435 10441 10448 10456
10659 10655 10651 10647 10645 10643 10639 10636 10634 10630 10627 10624 10620 10616 10612 10607 10603 10597 10592 10588 10583 10576 10571 10567 10563 10558 10553 10546 10539 10532 10528 10523 10517 10512 10507 10502 10496 10489 10483 10477 10471 10466 10462 10458 10455 10452 10449 10444 10440 10436 10433 10429 10425 10423 10420 10418 10415 10411 10408 10405 10402 10399 10395 10392 10389 10386 10384 10383 10382 10381 10381 10382 10383 10384 10385 10387 10390 10393 10398 10404 10409 10414 10418 10423 10429 10436 10443 10449
10656 10653 10649 10645 10642 10640 10637 10633 10630 10627 10624 10620 10616 10613 10610 10606 10601 10596 10590 10585 10580 10574 10568 10565 10562 10557 10552 10547 10541 10534 10528 10523 10517 10512 10506 10502 10496 10490 10484 10478 10472 10467 10462 10458 10454 10452 10450 10448 10444 10439 10434 10430 10427 10424 10422 10420 10416 10413 10410 10407 10403 10400 10396 10393 10389 10387 10384 10383 10382 10381 10381 10381 10382 10383 10384 10385 10388 10391 10394 10399 10403 10407 10412 10419 10426 10432 10438 10443
10651 10649 10647 10644 10640 10638 10635 10631 10627 10624 10620 10616 10613 10610 10609 10605 10601 10596 10591 10585 10579 10574 10569 10564 10560 10555 10551 10547 10542 10535 10529 10523 10518 10512 10506 10501 10496 10491 10485 10479 10473 10467 10462 10458 10454 10451 10449 10448 10445 10442 10439 10436 10432 10428 10424 10421 10417 10414 10411 10408 10405 10401 10398 10394 10391 10388 10385 10383 10382 10381 10381 10381 10381 10382 10383 10384 10386 10388 10391 10395 10398 10402 10407 10415 10423 10429 10433 10436
10647 10644 10642 10641 10638 10636 10633 10628 10625 10622 10618 10615 10611 10608 10606 10603 10599 10595 10591 10585 10579 10575 10570 10564 10559 10554 10549 10545 10540 10535 10529 10523 10518 10513 10508 10502 10496 10491 10485 10480 10474 10469 10463 10458 10454 10451 10448 10446 10444 10441 10439 10436 10432 10427 10423 10420 10417 10415 10412 10409 10406 10403 10400 10396 10393 10389 10387 10385 10383 10382 10381 10381 10381 10382 10383 10384 10385 10387 10390 10393 10396 10400 10403 10408 10415 10423 10429 10432
10644 10641 10638 10636 10634 10632 10629 10626 10623 10620 10616 10613 10610 10606 10602 10599 10596 10592 10589 10584 10579 10574 10570 10565 10559 10554 10548 10543 10538 10533 10528 10523 10518 10514 10509 10503 10497 10491 10486 10481 10475 10469 10464 10459 10454 10450 10447 10445 10443 10440 10437 10434 10430 10426 10423 10420 10418 10416 10413 10410 10407 10404 10402 10399 10396 10392 10389 10386 10384 10383 10382 10382 10382 10382 10383 10384 10385 10386 10388 10391 10395 10398 10401 10403 10407 10413 10421 10427
10641 10639 10636 10633 10630 10627 10624 10622 10619 10616 10614 10611 10608 10604 10601 10597 10593 10589 10585 10583 10579 10574 10569 10564 10559 10553 10548 10543 10537 10532 10528 10523 10518 10513 10508 10504 10499 10493 10488 10482 10476 10470 10464 10459 10455 10451 10447 10444 10441 10439 10436 10433 10430 10427 10423 10421 10419 10417 10413 10410 10407 10405 10404 10402 10398 10395 10392 10388 10386 10384 10384 10383 10382 10382 10382 10383 10384 10385 10387 10389 10392 10396 10398 10401 10404 10408 10413 10419
10638 10637 10635 10631 10628 10625 10622 10618 10615 10612 10610 10607 10604 10602 10599 10595 10592 10588 10583 10580 10577 10573 10568 10563 10558 10553 10548 10543 10538 10532 10527 10521 10516 10512 10507 10503 10498 10494 10488 10482 10477 10471 10465 10459 10455 10451 10447 10442 10439 10438 10435 10433 10429 10426 10424 10421 10419 10417 10414 10411 10409 10408 10406 10404 10401 10398 10395 10391 10388 10386 10385 10383 10383 10382 10382 10382 10383 10384 10385 10387 10390 10393 10396 10399 10402 10406 10410 10415
10634 10633 10631 10629 10626 10623 10621 10617 10613 10609 10606 10603 10601 10599 10596 10592 10589 10586 10583 10578 10574 10571 10566 10561 10558 10553 10548 10543 10538 10533 10526 10520 10515 10510 10506 10502 10497 10492 10487 10482 10477 10472 10466 10460 10455 10450 10446 10442 10439 10436 10434 10432 10429 10426 10423 10421 10419 10417 10414 10411 10409 10408 10407 10405 10403 10400 10397 10394 10390 10388 10386 10385 10384 10382 10381 10381 10382 10383 10384 10385 10387 10390 10393 10396 10399 10402 10407 10412
10630 10628 10626 10625 10622 10619 10618 10616 10612 10608 10604 10600 10597 10595 10593 10590 10586 10583 10581 10578 10574 10570 10565 10560 10556 10552 10547 10542 10537 10532 10526 10520 10515 10510 10505 10501 10497 10492 10487 10482 10477 10472 10467 10462 10456 10451 10447 10442 10439 10435 10433 10432 10429 10426 10423 10421 10419 10416 10413 10410 10409 10408 10408 10407 10405 10402 10399 10396 10393 10390 10388 10386 10385 10384 10382 10381 10381 10382 10382 10383 10385 10387 10389 10392 10395 10399 10403 10408
10626 10624 10622 10620 10618 10615 10613 10612 10610 10607 10603 10598 10594 10592 10590 10588 10584 10579 10576 10575 10573 10569 10565 10560 10555 10551 10546 10541 10536 10531 10525 10520 10515 10510 10505 10501 10496 10492 10487 10483 10477 10472 10467 10463 10458 10453 10448 10443 10439 10435 10432 10430 10429 10426 10423 10421 10419 10416 10413 10412 10411 10410 10409 10408 10405 10403 10400 10398 10396 10393 10390 10387 10386 10385 10384 10383 10382 10381 10381 10382 10383 10385 10387 10389 10392 10395 10399 10403